FW9036 Weather Reports


time (UTC)temp
C
wind
direction
speed
KPH
gust
KPH
rain 1hr
cm
rain 24hr
cm
rain mn
cm
humidity
%
barometer
mb
20260901000708 28 4 0.0 3.2 0.00 0.00 0.00 80 1015.8
20260901000204 28 73 1.6 3.2 0.00 0.00 0.00 80 1016.0
20260831235702 28 309 0.0 1.6 0.00 0.00 0.00 79 1015.6
20260831235158 28 193 0.0 4.8 0.00 0.00 0.00 79 1015.7
20260831234657 28 180 0.0 3.2 0.00 0.00 0.00 78 1015.8
20260831234152 28 122 0.0 3.2 0.00 0.00 0.00 77 1015.7
20260831233648 28 151 0.0 4.8 0.00 0.00 0.00 76 1015.9
20260831233143 28 100 0.0 3.2 0.00 0.00 0.00 75 1015.9
20260831232638 29 137 0.0 3.2 0.00 0.00 0.00 75 1015.8
20260831232134 29 131 3.2 4.8 0.00 0.00 0.00 73 1015.8
20260831231629 30 127 0.0 4.8 0.00 0.00 0.00 70 1015.8
20260831231125 31 53 1.6 4.8 0.00 0.00 0.00 68 1015.8
20260831230616 31 218 0.0 3.2 0.00 0.00 0.00 66 1016.0
20260831230115 31 184 3.2 3.2 0.00 0.00 0.00 65 1016.0
20260831225610 31 166 0.0 3.2 0.00 0.00 0.00 65 1015.9
20260831225105 31 151 3.2 3.2 0.00 0.00 0.00 65 1015.8
20260831224600 31 35 0.0 4.8 0.00 0.00 0.00 66 1015.7
20260831224055 31 131 4.8 6.4 0.00 0.00 0.00 66 1015.9
20260831223551 31 135 4.8 4.8 0.00 0.00 0.00 64 1015.7
20260831223047 31 138 0.0 3.2 0.00 0.00 0.00 65 1016.0
20260831222543 31 123 0.0 6.4 0.00 0.00 0.00 62 1015.5
20260831222042 32 97 0.0 3.2 0.00 0.00 0.00 61 1015.6
20260831221538 32 199 3.2 4.8 0.00 0.00 0.00 60 1015.4
20260831221033 32 102 1.6 3.2 0.00 0.00 0.00 60 1015.4
20260831220528 32 145 3.2 4.8 0.00 0.00 0.00 61 1015.4
20260831220024 32 199 0.0 4.8 0.00 0.00 0.00 61 1015.3
20260831215519 32 105 3.2 4.8 0.00 0.00 0.00 60 1015.5
20260831215015 32 99 1.6 4.8 0.00 0.00 0.00 63 1015.3
20260831214512 31 103 0.0 4.8 0.00 0.00 0.00 63 1015.4
20260831214008 31 151 0.0 6.4 0.00 0.00 0.00 64 1015.4
20260831213504 32 89 3.2 4.8 0.00 0.00 0.00 63 1015.4
20260831212959 32 91 0.0 8.0 0.00 0.00 0.00 62 1015.4
20260831212455 33 76 3.2 4.8 0.00 0.00 0.00 59 1015.3
20260831211954 33 87 1.6 3.2 0.00 0.00 0.00 59 1015.3
20260831211450 33 123 3.2 8.0 0.00 0.00 0.00 59 1015.3
20260831210949 32 146 1.6 4.8 0.00 0.00 0.00 60 1015.4
20260831210444 32 120 3.2 6.4 0.00 0.00 0.00 62 1015.4
20260831205940 32 144 3.2 4.8 0.00 0.00 0.00 60 1015.5
20260831205436 32 147 6.4 6.4 0.00 0.00 0.00 60 1015.1
20260831204931 32 157 6.4 6.4 0.00 0.00 0.00 60 1015.4
20260831204430 32 134 1.6 8.0 0.00 0.00 0.00 58 1015.5
20260831203930 32 86 1.6 11.3 0.00 0.00 0.00 57 1015.3
20260831203424 32 38 3.2 4.8 0.00 0.00 0.00 57 1015.7
20260831202922 32 172 0.0 4.8 0.00 0.00 0.00 61 1015.3
20260831202418 32 109 3.2 4.8 0.00 0.00 0.00 62 1015.3
20260831201912 32 88 1.6 4.8 0.00 0.00 0.00 61 1015.2
20260831201410 31 81 4.8 8.0 0.00 0.00 0.00 62 1015.2
20260831200907 32 30 3.2 6.4 0.00 0.00 0.00 60 1015.5
20260831200402 32 63 4.8 8.0 0.00 0.00 0.00 60 1015.6
20260831195856 32 56 3.2 8.0 0.00 0.00 0.00 59 1015.6
20260831195352 32 21 6.4 8.0 0.00 0.00 0.00 58 1015.3
20260831194847 32 35 6.4 6.4 0.00 0.00 0.00 59 1015.6
20260831194343 32 102 3.2 4.8 0.00 0.00 0.00 59 1015.7
20260831193842 32 149 0.0 6.4 0.00 0.00 0.00 58 1015.7
20260831193337 32 53 0.0 6.4 0.00 0.00 0.00 59 1015.6
20260831192832 31 166 3.2 11.3 0.00 0.00 0.00 62 1015.7
20260831192332 32 88 3.2 8.0 0.00 0.00 0.00 61 1015.7
20260831191828 32 106 1.6 6.4 0.00 0.00 0.00 61 1015.8
20260831191324 32 114 0.0 4.8 0.00 0.00 0.00 61 1015.7
20260831190819 32 139 4.8 6.4 0.00 0.00 0.00 63 1015.9
20260831190314 32 172 4.8 6.4 0.00 0.00 0.00 63 1016.2
20260831185813 32 82 1.6 4.8 0.00 0.00 0.00 60 1016.1
20260831185309 32 121 0.0 6.4 0.00 0.00 0.00 60 1016.1
20260831184808 32 116 3.2 6.4 0.00 0.00 0.00 60 1016.2
20260831184304 32 78 6.4 8.0 0.00 0.00 0.00 60 1016.4
20260831183759 32 112 4.8 4.8 0.00 0.00 0.00 63 1016.2
20260831183258 32 65 1.6 6.4 0.00 0.00 0.00 62 1016.4
20260831182757 32 44 3.2 8.0 0.00 0.00 0.00 62 1016.6
20260831182252 32 172 0.0 9.7 0.00 0.00 0.00 63 1016.4
20260831181748 32 134 6.4 6.4 0.00 0.00 0.00 64 1016.4
20260831181243 32 22 4.8 8.0 0.00 0.00 0.00 60 1016.3
20260831180743 31 102 4.8 6.4 0.00 0.00 0.00 64 1016.5
20260831180238 31 69 3.2 8.0 0.00 0.00 0.00 65 1016.6
20260831175737 31 90 0.0 8.0 0.00 0.00 0.00 67 1016.4
20260831175234 31 358 4.8 9.7 0.00 0.00 0.00 66 1016.6
20260831174729 31 7 4.8 6.4 0.00 0.00 0.00 65 1016.7
20260831174224 31 143 3.2 6.4 0.00 0.00 0.00 68 1016.6
20260831173723 31 74 1.6 6.4 0.00 0.00 0.00 66 1017.0
20260831173218 31 175 3.2 8.0 0.00 0.00 0.00 67 1017.2
20260831172713 32 178 8.0 8.0 0.00 0.00 0.00 67 1017.0
20260831172208 31 113 4.8 8.0 0.00 0.00 0.00 68 1017.1
20260831171702 31 149 4.8 8.0 0.00 0.00 0.00 68 1017.1
20260831171200 31 136 1.6 8.0 0.00 0.00 0.00 67 1017.1
20260831170656 31 142 0.0 4.8 0.00 0.00 0.00 66 1017.2
20260831170153 32 280 1.6 4.8 0.00 0.00 0.00 66 1017.1
20260831165649 31 165 1.6 4.8 0.00 0.00 0.00 68 1017.2
20260831165145 31 63 3.2 6.4 0.00 0.00 0.00 67 1017.3
20260831164640 31 68 0.0 6.4 0.00 0.00 0.00 70 1017.2
20260831164136 30 61 0.0 9.7 0.00 0.00 0.00 70 1017.4
20260831163631 30 57 1.6 6.4 0.00 0.00 0.00 71 1017.5
20260831163127 30 18 4.8 6.4 0.00 0.00 0.00 72 1017.3
20260831162626 30 39 4.8 9.7 0.00 0.00 0.00 72 1017.7
20260831162124 30 46 0.0 6.4 0.00 0.00 0.00 71 1017.5
20260831161620 30 52 0.0 6.4 0.00 0.00 0.00 72 1017.7
20260831161116 30 165 1.6 4.8 0.00 0.00 0.00 74 1017.8
20260831160615 30 23 3.2 6.4 0.00 0.00 0.00 73 1017.6
20260831160111 30 150 1.6 9.7 0.00 0.00 0.00 72 1017.6
20260831155605 31 96 1.6 6.4 0.00 0.00 0.00 69 1017.5
20260831155101 31 45 1.6 6.4 0.00 0.00 0.00 67 1017.8
20260831154556 31 134 3.2 3.2 0.00 0.00 0.00 69 1017.8
20260831154056 31 160 8.0 9.7 0.00 0.00 0.00 69 1017.7
20260831153555 31 100 4.8 6.4 0.00 0.00 0.00 68 1017.8
20260831153053 30 44 0.0 8.0 0.00 0.00 0.00 70 1017.8
20260831152547 30 39 4.8 6.4 0.00 0.00 0.00 71 1017.7
20260831152043 30 359 4.8 8.0 0.00 0.00 0.00 71 1017.7
20260831151542 30 207 1.6 4.8 0.00 0.00 0.00 73 1017.7
20260831151037 30 77 3.2 6.4 0.00 0.00 0.00 75 1017.9
20260831150532 29 233 0.0 4.8 0.00 0.00 0.00 75 1017.6
20260831150028 29 31 0.0 3.2 0.00 0.00 0.00 76 1017.5
20260831145522 29 37 0.0 1.6 0.00 0.00 0.00 77 1017.7
20260831145019 29 210 3.2 4.8 0.00 0.00 0.00 76 1017.7
20260831144514 30 266 0.0 3.2 0.00 0.00 0.00 74 1017.8
20260831144009 30 292 11.3 11.3 0.00 0.00 0.00 75 1017.5
20260831143504 30 335 1.6 3.2 0.00 0.00 0.00 75 1017.6
20260831142959 30 142 0.0 6.4 0.00 0.00 0.00 76 1017.3
20260831142456 29 296 0.0 4.8 0.00 0.00 0.00 76 1017.4
20260831141950 29 268 3.2 3.2 0.00 0.00 0.00 77 1017.4
20260831141449 28 113 0.0 3.2 0.00 0.00 0.00 78 1017.1
20260831140944 28 289 4.8 4.8 0.00 0.00 0.00 79 1017.0
20260831140439 28 186 0.0 4.8 0.00 0.00 0.00 79 1017.0
20260831135938 28 58 1.6 1.6 0.00 0.00 0.00 80 1016.8
20260831135437 28 226 3.2 8.0 0.00 0.00 0.00 80 1016.9
20260831134932 28 48 0.0 3.2 0.00 0.00 0.00 80 1016.9
20260831134429 27 296 8.0 8.0 0.00 0.00 0.00 80 1016.9
20260831133928 27 283 1.6 6.4 0.00 0.00 0.00 81 1016.9
20260831133428 27 331 3.2 6.4 0.00 0.00 0.00 81 1016.6
20260831132923 27 300 3.2 4.8 0.00 0.00 0.00 82 1016.5
20260831132419 27 256 3.2 4.8 0.00 0.00 0.00 85 1016.7
20260831131918 27 42 3.2 4.8 0.00 0.00 0.00 84 1016.8
20260831131414 27 29 3.2 3.2 0.00 0.00 0.00 85 1016.9
20260831130909 27 107 1.6 3.2 0.00 0.00 0.00 86 1017.0
20260831130405 26 275 0.0 3.2 0.00 0.00 0.00 85 1016.9
20260831125904 26 134 1.6 4.8 0.00 0.00 0.00 86 1016.8
20260831125359 26 100 1.6 3.2 0.00 0.00 0.00 87 1016.5
20260831124854 26 28 3.2 3.2 0.00 0.00 0.00 87 1016.4
20260831124350 26 238 0.0 1.6 0.00 0.00 0.00 88 1016.7
20260831123845 26 222 0.0 4.8 0.00 0.00 0.00 88 1016.8
20260831123344 26 290 0.0 4.8 0.00 0.00 0.00 88 1016.6
20260831122839 26 323 0.0 1.6 0.00 0.00 0.00 88 1016.7
20260831122334 26 236 0.0 1.6 0.00 0.00 0.00 89 1016.5
20260831121834 26 43 0.0 1.6 0.00 0.00 0.00 89 1016.4
20260831121330 26 139 0.0 3.2 0.00 0.00 0.00 90 1016.2
20260831120826 26 196 0.0 1.6 0.00 0.00 0.00 90 1016.3
20260831120320 26 24 3.2 4.8 0.00 0.00 0.00 90 1016.3
20260831115815 25 27 1.6 3.2 0.00 0.00 0.00 93 1016.3
20260831115312 25 98 0.0 0.0 0.00 0.00 0.00 95 1016.3
20260831114811 25 308 0.0 0.0 0.00 0.00 0.00 95 1016.1
20260831114310 25 236 0.0 0.0 0.00 0.00 0.00 96 1016.1
20260831113806 25 238 0.0 1.6 0.00 0.00 0.00 96 1016.0
20260831113305 25 155 0.0 1.6 0.00 0.00 0.00 96 1015.9
20260831112800 25 10 0.0 0.0 0.00 0.00 0.00 96 1015.9
20260831112255 25 70 0.0 0.0 0.00 0.00 0.00 96 1015.9
20260831111750 25 140 0.0 0.0 0.00 0.00 0.00 96 1015.9
20260831111247 25 110 0.0 0.0 0.00 0.00 0.00 97 1016.0
20260831110742 25 0 0.0 0.0 0.00 0.00 0.00 97 1015.8
20260831110237 25 91 0.0 0.0 0.00 0.00 0.00 97 1015.8
20260831105735 25 110 0.0 0.0 0.00 0.00 0.00 97 1015.8
20260831105232 25 123 0.0 0.0 0.00 0.00 0.00 97 1015.7
20260831104726 25 84 0.0 0.0 0.00 0.00 0.00 97 1015.8
20260831104223 25 104 0.0 1.6 0.00 0.00 0.00 97 1015.5
20260831103722 25 70 0.0 1.6 0.00 0.00 0.00 97 1015.6
20260831103218 25 9 0.0 3.2 0.00 0.00 0.00 97 1015.8
20260831102718 25 98 0.0 0.0 0.00 0.00 0.00 97 1015.5
20260831102213 25 146 0.0 3.2 0.00 0.00 0.00 97 1015.5
20260831101709 25 34 0.0 1.6 0.00 0.00 0.00 97 1015.3
20260831101204 25 237 0.0 0.0 0.00 0.00 0.00 97 1015.2
20260831100700 25 164 1.6 3.2 0.00 0.00 0.00 97 1015.4
20260831100156 25 10 0.0 1.6 0.00 0.00 0.00 97 1015.3
20260831095654 25 81 0.0 1.6 0.00 0.00 0.00 97 1015.4
20260831095149 25 327 0.0 0.0 0.00 0.00 0.00 97 1015.3
20260831094644 25 100 0.0 0.0 0.00 0.00 0.00 97 1015.3
20260831094140 25 103 0.0 1.6 0.00 0.00 0.00 97 1015.3
20260831093636 25 278 0.0 0.0 0.00 0.00 0.00 97 1015.4
20260831093131 25 120 0.0 0.0 0.00 0.00 0.00 97 1015.7
20260831092628 25 241 0.0 0.0 0.00 0.00 0.00 96 1015.3
20260831092123 25 174 0.0 0.0 0.00 0.00 0.00 96 1015.3
20260831091622 25 186 0.0 1.6 0.00 0.00 0.00 96 1015.3
20260831091118 25 315 0.0 0.0 0.00 0.00 0.00 96 1015.3
20260831090613 25 110 0.0 0.0 0.00 0.00 0.00 96 1015.3
20260831090109 25 211 0.0 0.0 0.00 0.00 0.00 96 1015.2
20260831085604 25 144 0.0 1.6 0.00 0.00 0.00 96 1015.4
20260831085100 25 290 0.0 0.0 0.00 0.00 0.00 96 1015.3
20260831084555 25 123 0.0 0.0 0.00 0.00 0.00 96 1015.3
20260831084052 25 123 0.0 0.0 0.00 0.00 0.00 96 1015.2
20260831083548 25 123 0.0 0.0 0.00 0.00 0.00 96 1015.3
20260831083042 25 43 0.0 0.0 0.00 0.00 0.00 96 1015.3
20260831082541 25 70 0.0 0.0 0.00 0.00 0.00 96 1015.3
20260831082037 25 70 0.0 0.0 0.00 0.00 0.00 96 1015.3
20260831081532 25 70 0.0 0.0 0.00 0.00 0.00 96 1015.1
20260831081029 25 70 0.0 0.0 0.00 0.00 0.00 96 1015.1
20260831080528 25 70 0.0 0.0 0.00 0.00 0.00 95 1015.2
20260831080024 25 70 0.0 0.0 0.00 0.00 0.00 95 1015.3
20260831075519 25 70 0.0 0.0 0.00 0.00 0.00 95 1015.3
20260831075015 25 70 0.0 0.0 0.00 0.00 0.00 95 1015.4
20260831074514 25 144 0.0 0.0 0.00 0.00 0.00 95 1015.3
20260831074014 25 144 0.0 0.0 0.00 0.00 0.00 95 1015.5
20260831073509 25 144 0.0 0.0 0.00 0.00 0.00 94 1015.2
20260831073008 25 144 0.0 0.0 0.00 0.00 0.00 94 1015.4
20260831072503 25 144 0.0 0.0 0.00 0.00 0.00 94 1015.5
20260831072000 25 144 0.0 0.0 0.00 0.00 0.00 94 1015.5
20260831071459 25 144 0.0 0.0 0.00 0.00 0.00 93 1015.7
20260831070954 25 198 0.0 0.0 0.00 0.00 0.00 93 1015.5
20260831070453 26 198 0.0 0.0 0.00 0.00 0.00 92 1015.6
20260831065952 26 31 0.0 0.0 0.00 0.00 0.00 92 1015.8
20260831065450 26 31 0.0 0.0 0.00 0.00 0.00 92 1015.7
20260831064945 26 31 0.0 0.0 0.00 0.00 0.00 92 1015.7
20260831064440 26 18 0.0 1.6 0.00 0.00 0.00 93 1015.9
20260831063936 26 123 0.0 0.0 0.00 0.00 0.00 92 1015.7
20260831063431 26 123 0.0 0.0 0.00 0.00 0.00 92 1015.7
20260831062925 26 6 0.0 0.0 0.00 0.00 0.00 92 1015.7
20260831062421 26 30 0.0 1.6 0.00 0.00 0.00 92 1016.0
20260831061920 26 176 0.0 0.0 0.00 0.00 0.00 91 1016.0
20260831061419 26 110 0.0 0.0 0.00 0.00 0.00 91 1015.9
20260831060915 26 112 0.0 0.0 0.00 0.00 0.00 91 1015.8
20260831060410 26 98 0.0 0.0 0.00 0.00 0.00 91 1015.9
20260831055909 26 98 0.0 0.0 0.00 0.00 0.00 91 1016.0
20260831055404 26 29 0.0 0.0 0.00 0.00 0.00 91 1016.2
20260831054859 25 265 0.0 0.0 0.00 0.00 0.00 91 1016.2
20260831054354 26 116 0.0 1.6 0.00 0.00 0.00 91 1016.3
20260831053853 26 31 0.0 0.0 0.00 0.00 0.00 91 1016.3
20260831053352 26 3 0.0 0.0 0.00 0.00 0.00 91 1016.4
20260831052847 26 196 0.0 1.6 0.00 0.00 0.00 90 1016.3
20260831052346 26 36 0.0 0.0 0.00 0.00 0.00 90 1016.2
20260831051844 26 36 0.0 0.0 0.00 0.00 0.00 90 1016.4
20260831051343 26 290 0.0 0.0 0.00 0.00 0.00 90 1016.3
20260831050838 26 250 0.0 0.0 0.00 0.00 0.00 90 1016.1
20260831050337 26 18 0.0 1.6 0.00 0.00 0.00 90 1016.4
20260831045832 26 290 0.0 0.0 0.00 0.00 0.00 90 1016.4
20260831045326 26 123 0.0 0.0 0.00 0.00 0.00 90 1016.2
20260831044821 26 31 1.6 1.6 0.00 0.00 0.00 90 1016.0
20260831044316 26 180 0.0 0.0 0.00 0.00 0.00 90 1016.2
20260831043813 26 205 0.0 0.0 0.00 0.00 0.00 89 1016.3
20260831043312 26 190 1.6 3.2 0.00 0.00 0.00 88 1016.1
20260831042807 26 16 1.6 3.2 0.00 0.00 0.00 88 1016.0
20260831042307 26 25 0.0 0.0 0.00 0.00 0.00 88 1016.4
20260831041802 26 212 0.0 0.0 0.00 0.00 0.00 88 1016.4
20260831041301 26 211 0.0 0.0 0.00 0.00 0.00 88 1016.3
20260831040756 26 33 0.0 0.0 0.00 0.00 0.00 88 1016.4
20260831040255 26 250 0.0 0.0 0.00 0.00 0.00 88 1016.2
20260831035754 26 127 0.0 0.0 0.00 0.00 0.00 87 1016.4
20260831035253 26 38 0.0 0.0 0.00 0.00 0.00 87 1016.4
20260831034752 26 216 1.6 1.6 0.00 0.00 0.00 86 1016.4
20260831034248 26 6 0.0 3.2 0.00 0.00 0.00 86 1016.4
20260831033743 26 262 0.0 3.2 0.00 0.00 0.00 86 1016.5
20260831033243 26 3 0.0 3.2 0.00 0.00 0.00 85 1016.4
20260831032738 26 113 0.0 1.6 0.00 0.00 0.00 85 1016.7
20260831032233 26 73 0.0 1.6 0.00 0.00 0.00 85 1016.6
20260831031728 26 259 1.6 1.6 0.00 0.00 0.00 84 1016.6
20260831031223 26 55 1.6 1.6 0.00 0.00 0.00 84 1016.8
20260831030722 26 31 0.0 0.0 0.00 0.00 0.00 84 1016.9
20260831030221 26 110 0.0 1.6 0.00 0.00 0.00 83 1016.8
20260831025720 26 193 0.0 0.0 0.00 0.00 0.00 83 1017.1
20260831025214 26 127 0.0 0.0 0.00 0.00 0.00 82 1017.2
20260831024710 26 285 0.0 1.6 0.00 0.00 0.00 82 1016.9
20260831024204 26 176 0.0 3.2 0.00 0.00 0.00 81 1017.2
20260831023702 26 250 0.0 0.0 0.00 0.00 0.00 82 1017.2
20260831023201 26 341 0.0 3.2 0.00 0.00 0.00 83 1017.0
20260831022656 26 202 1.6 3.2 0.00 0.00 0.00 84 1016.9
20260831022151 26 127 0.0 1.6 0.00 0.00 0.00 85 1016.8
20260831021650 26 43 0.0 3.2 0.00 0.00 0.00 85 1016.9
20260831021145 27 193 0.0 1.6 0.00 0.00 0.00 85 1016.9
20260831020642 26 108 0.0 3.2 0.00 0.00 0.00 86 1016.9
20260831020136 26 113 0.0 3.2 0.00 0.00 0.00 87 1016.9
20260831015632 26 250 0.0 1.6 0.00 0.00 0.00 86 1016.8
20260831015131 26 205 0.0 1.6 0.00 0.00 0.00 86 1016.8
20260831014626 26 95 0.0 1.6 0.00 0.00 0.00 86 1016.6
20260831014121 27 176 0.0 0.0 0.00 0.00 0.00 87 1016.8
20260831013618 27 30 1.6 1.6 0.00 0.00 0.00 87 1016.8
20260831013117 27 61 0.0 1.6 0.00 0.00 0.00 86 1016.7
20260831012612 27 190 0.0 1.6 0.00 0.00 0.00 86 1016.7
20260831012107 27 146 0.0 1.6 0.00 0.00 0.00 85 1016.8
20260831011606 27 318 0.0 4.8 0.00 0.00 0.00 85 1016.6
20260831011102 27 43 0.0 0.0 0.00 0.00 0.00 85 1016.6
20260831010557 27 101 1.6 3.2 0.00 0.00 0.00 85 1016.7
20260831010054 27 278 0.0 1.6 0.00 0.00 0.00 85 1016.5
20260831005548 27 123 0.0 3.2 0.00 0.00 0.00 84 1016.8
20260831005048 27 153 0.0 3.2 0.00 0.00 0.00 83 1016.4
20260831004544 27 163 0.0 1.6 0.00 0.00 0.00 82 1016.6
20260831004039 27 1 0.0 0.0 0.00 0.00 0.00 82 1016.9
20260831003536 27 18 0.0 0.0 0.00 0.00 0.00 81 1016.7
20260831003031 27 181 0.0 1.6 0.00 0.00 0.00 81 1016.3
20260831002529 27 236 0.0 1.6 0.00 0.00 0.00 81 1016.4
20260831002025 27 84 0.0 3.2 0.00 0.00 0.00 81 1016.2
20260831001521 27 264 0.0 1.6 0.00 0.00 0.00 80 1016.5